Flag for Germany Weather past 2 weeks in Kornwestheim, Baden-Württemberg, Germany

Now
46 °F

Passing clouds.


Feels Like: 41 °F
Forecast: 36 / 42 °F
Wind: 13 mph from Southwest

Location: Stuttgart-Echterdingen

Current Time: Mar 31, 2015 at 4:37:15 AM

Latest Report: Mar 31, 2015 at 4:20 AM


Visibility: N/A

Pressure: 29.65 "Hg

Humidity: 82%

Dew point: 41 °F

Location of KornwestheimLocation

Historic Weather in Kornwestheim — Graph

°F

Kornwestheim temperature yesterday

Maximum temperature yesterday: 50 °F (at 12:20 AM)
Minimum temperature yesterday: 43 °F (at 2:20 PM)
Average temperature yesterday: 46 °F

Past Weeks' High & Low Weather Summary

 TemperatureHumidityPressure
High66 °F (Mar 17, 2:50 PM)100% (Mar 19, 6:20 AM)30.36 "Hg (Mar 19, 6:20 AM)
Low30 °F (Mar 24, 4:50 AM)29% (Mar 16, 3:20 PM)29.56 "Hg (Mar 25, 1:50 PM)
Average46 °F69%29.99 "Hg
* Reported Mar 16 2:20 AM — Mar 31 3:20 AM, Kornwestheim, Weather by CustomWeather, © 2015

Note: Actual official high and low records may vary slightly from our data, if they occured in-between our weather recording intervals... More about our weather records

Advertising

Kornwestheim weather history for previous 24 hours

 ConditionsComfort  
Time TempWeatherWind HumidityBarometerVisibility
3:20 AM
Tue, Mar 31
45 °FLight rain. Passing clouds.8 mph81%29.74 "HgN/A
2:50 AM45 °FPassing clouds.9 mph76%29.77 "HgN/A
2:20 AM45 °FPassing clouds.10 mph71%29.80 "HgN/A
1:20 AM45 °FClear.5 mph66%29.86 "Hg10 mi
12:50 AM43 °FClear.8 mph71%29.86 "Hg10 mi
12:20 AM43 °FClear.7 mph71%29.89 "Hg10 mi
11:50 PM
Mon, Mar 30
43 °FClear.5 mph71%29.92 "Hg10 mi
11:20 PM43 °FPassing clouds.6 mph66%29.92 "HgN/A
10:50 PM43 °FClear.8 mph66%29.92 "Hg10 mi
10:20 PM43 °FClear.9 mph66%29.92 "Hg10 mi
9:50 PM45 °FClear.12 mph61%29.92 "Hg10 mi
9:20 PM45 °FClear.8 mph61%29.92 "Hg10 mi
8:50 PM45 °FClear.10 mph61%29.92 "Hg10 mi
8:20 PM45 °FScattered showers. Partly sunny.12 mph61%29.92 "HgN/A
7:50 PM46 °FScattered showers. Partly sunny.16 mph53%29.89 "HgN/A
7:20 PM46 °FPartly sunny.18 mph57%29.89 "HgN/A
6:50 PM48 °FPartly sunny.20 mph54%29.86 "HgN/A
6:20 PM48 °FPartly sunny.18 mph54%29.83 "HgN/A
5:50 PM48 °FPartly sunny.20 mph62%29.83 "HgN/A
5:20 PM48 °FPartly sunny.21 mph62%29.83 "HgN/A
4:50 PM48 °FSprinkles. Broken clouds.22 mph62%29.80 "HgN/A
4:20 PM46 °FSprinkles. Broken clouds.21 mph66%29.80 "HgN/A
3:50 PM48 °FSprinkles. Broken clouds.23 mph62%29.80 "HgN/A
3:20 PM48 °FBroken clouds.25 mph76%29.80 "HgN/A
2:50 PM45 °FBroken clouds.21 mph81%29.77 "HgN/A
2:20 PM43 °FRain showers. Broken clouds.31 mph81%29.77 "Hg2 mi
1:50 PM48 °FBroken clouds.28 mph71%29.71 "HgN/A
1:20 PM48 °FCool.16 mph76%29.71 "HgN/A
12:50 PM45 °FSprinkles. Broken clouds.23 mph81%29.71 "HgN/A
12:20 PM50 °FScattered showers. Partly sunny.23 mph71%29.68 "HgN/A
11:50 AM46 °FPartly sunny.26 mph76%29.68 "HgN/A
11:20 AM45 °FSprinkles. Broken clouds.30 mph81%29.68 "HgN/A
10:50 AM46 °FPartly sunny.10 mph82%29.65 "HgN/A
10:20 AM46 °FBroken clouds.22 mph76%29.65 "HgN/A
9:50 AM46 °FPartly sunny.22 mph76%29.62 "HgN/A
9:20 AM46 °FBroken clouds.22 mph76%29.62 "HgN/A
8:50 AM46 °FBroken clouds.21 mph82%29.62 "HgN/A
8:20 AM46 °FPartly sunny.16 mph82%29.59 "HgN/A
7:50 AM45 °FPartly cloudy.12 mph93%29.59 "HgN/A
7:20 AM45 °FLight rain. Overcast.12 mph87%29.56 "HgN/A
6:50 AM46 °FLight rain. Overcast.13 mph87%29.56 "HgN/A
6:20 AM45 °FLight rain. Overcast.12 mph93%29.56 "HgN/A
5:50 AM46 °FLight rain. Overcast.14 mph87%29.56 "HgN/A
5:20 AM46 °FLight rain. Overcast.15 mph87%29.56 "HgN/A
4:50 AM46 °FLight rain. Overcast.16 mph87%29.56 "HgN/A
4:20 AM46 °FLight rain. Overcast.14 mph93%29.56 "HgN/A
Weather by CustomWeather, © 2015

See weather overviewHow to use our weather pages